User: anonymous   Login
Location: Mentone
(34.5413°N, 85.5351°W)
Time: 15:54:36
(UTC-05:00)
Language:

Cosmos 1703 - Orbit

View from above orbital plane
View from above orbital plane
View from above satellite
View from above satellite

Ground track
Ground track

The orbit data is extracted from the following two-line orbital elements,

1 16262U 85108A   17202.07472666 +.00000084 +00000-0 +32239-5 0  9995
2 16262 082.4755 216.6679 0012922 149.4451 210.7534 15.10368491723755
Epoch (UTC): 21 July 2017 01:47:36
Eccentricity: 0.0012922
inclination: 82.4755°
perigee height: 526 km
apogee height: 544 km
right ascension of ascending node: 216.6679°
argument of perigee: 149.4451°
revolutions per day: 15.10368491
mean anomaly at epoch: 210.7534°
orbit number at epoch: 72375

The dashed part of the orbit path shows where the satellite is in the earth's shadow,  

DLR